This demonstration page uses our WeatherBlox Daily Observations layout. Learn more.

Left ArrowRight Arrow

38.20091, -84.87328

Hourly Observations for April 9, 2016

Temp ( °F °C ) Dew Point ( °F °C ) Humidity (%) Winds ( mph kmh ) Pressure ( in mb ) Visibility ( mi km ) Precip ( " mm )
12:00 am 00:00 Cloudy 36 2.2 32 0 86 86 W 9 15 29.97 1015 10 16 0.00 0.00
12:53 am 00:53 Partly Cloudy 36 2.2 30 -1.1 79 79 WNW 12 19 29.95 1014 10 16 0.00 0.00
1:53 am 01:53 Clear 35 1.7 27 -2.8 72 72 W 9 15 29.95 1014 10 16 0.00 0.00
2:53 am 02:53 Clear 34 1.1 25 -3.9 70 70 W 9 15 29.95 1014 10 16 0.00 0.00
3:53 am 03:53 Mostly Cloudy 34 1.1 24 -4.4 67 67 W 7 11 29.96 1015 10 16 0.00 0.00
4:53 am 04:53 Mostly Clear 33 0.6 22 -5.6 64 64 W 10 17 29.98 1015 10 16 0.00 0.00
5:53 am 05:53 Mostly Cloudy 33 0.6 22 -5.6 64 64 WNW 13 20 30.01 1016 10 16 0.00 0.00
6:53 am 06:53 Cloudy 33 0.6 20 -6.7 58 58 WNW 14 22 30.04 1017 10 16 0.00 0.00
7:53 am 07:53 Mostly Cloudy 33 0.6 19 -7.2 56 56 WNW 10 17 30.09 1019 10 16 0.00 0.00
8:53 am 08:53 Mostly Cloudy 33 0.6 20 -6.7 58 58 WNW 9 15 30.13 1020 10 16 0.00 0.00
9:53 am 09:53 Mostly Cloudy 35 1.7 20 -6.7 54 54 WNW 8 13 30.16 1022 10 16 0.00 0.00
10:53 am 10:53 Mostly Cloudy 35 1.7 21 -6.1 57 57 W 13 20 30.20 1023 10 16 0.00 0.00
11:53 am 11:53 Mostly Cloudy 37 2.8 17 -8.3 44 44 W 14 22 30.23 1024 10 16 0.00 0.00
12:53 pm 12:53 Mostly Cloudy 39 3.9 18 -7.8 43 43 W 8 13 30.24 1024 10 16 0.00 0.00
1:53 pm 13:53 Mostly Cloudy 40 4.4 18 -7.8 41 41 NW 13 20 30.23 1024 10 16 0.00 0.00
2:53 pm 14:53 Mostly Cloudy 42 5.6 18 -7.8 38 38 NNW 13 20 30.22 1023 10 16 0.00 0.00
3:53 pm 15:53 Partly Cloudy 43 6.1 17 -8.3 35 35 WNW 10 17 30.21 1023 10 16 0.00 0.00
4:53 pm 16:53 Partly Cloudy 43 6.1 16 -8.9 34 34 NNW 10 17 30.21 1023 10 16 0.00 0.00
5:53 pm 17:53 Partly Cloudy 44 6.7 17 -8.3 34 34 VRB 6 9 30.22 1023 10 16 0.00 0.00
6:53 pm 18:53 Sunny 43 6.1 16 -8.9 34 34 NW 10 17 30.23 1024 10 16 0.00 0.00
7:53 pm 19:53 Sunny 42 5.6 15 -9.4 33 33 N 3 6 30.24 1024 10 16 0.00 0.00
8:53 pm 20:53 Clear 37 2.8 19 -7.2 48 48 N 3 6 30.24 1024 10 16 0.00 0.00
9:53 pm 21:53 Clear 36 2.2 18 -7.8 48 48 NE 5 7 30.25 1025 10 16 0.00 0.00
10:53 pm 22:53 Clear 33 0.6 19 -7.2 56 56 E 6 9 30.26 1025 10 16 0.00 0.00
11:53 pm 23:53 Clear 32 0 19 -7.2 59 59 ESE 5 7 30.26 1025 10 16 0.00 0.00

Powered by AerisWeather